Watsonville, CA

10:48 PM PDT on April 22, 2017 (GMT -0700)
Watsonville Municipal

Weather History for KWVI - August, 2013

Change the Weather History Date:

Friday, August 2, 2013

  Actual Average Record
Temperature  
Mean Temperature 59 °F 63 °F  
Max Temperature 68 °F 73 °F 81 °F (2008)
Min Temperature 49 °F 53 °F 49 °F (2013)
Degree Days  
Heating Degree Days 6    
Month to date heating degree days 7  
Since 1 June heating degree days 204  
Since 1 July heating degree days 102  
Cooling Degree Days 0    
Month to date cooling degree days 0  
Year to date cooling degree days 40  
Since 1 June cooling degree days 34  
Growing Degree Days 8 (Base 50)    
Moisture  
Dew Point 51 °F    
Average Humidity 79    
Maximum Humidity 100    
Minimum Humidity 58    
Precipitation  
Precipitation 0.00 in - 0.01 in (2002)
Month to date precipitation 0.00  
Year to date precipitation 2.41  
Since 1 July precipitation 0.02  
Sea Level Pressure  
Sea Level Pressure 29.99 in    
Wind  
Wind Speed 5 mph (ESE)    
Max Wind Speed 28 mph    
Max Gust Speed 104 mph    
Visibility 7 miles    
Events      
T = Trace of Precipitation, MM = Missing Value Source: NWS Daily Summary

Daily Weather History Graph

Daily Weather History Graph

Search for Another Location

Airport or City:

Trip Planner

Search our weather history database for the weather conditions in past years. The results will help you decide how hot, cold, wet, or windy it might be!

Date:

Astronomy

Aug. 02, 2013 Rise Set
Actual Time 6:13 AM PDT 8:12 PM PDT
Civil Twilight 5:45 AM PDT 8:41 PM PDT
Nautical Twilight 5:10 AM PDT 9:15 PM PDT
Astronomical Twilight 4:32 AM PDT 9:53 PM PDT
Moon 2:39 AM PDT (8/2) 5:13 PM PDT (8/2)
Length of Visible Light 14h 56m
Length of Day
13h 59m
Waning Crescent, 15% of the Moon is Illuminated
Aug 2
Waning Crescent
Aug 6
New
Aug 14
First Quarter
Aug 20
Full
Aug 28
Last Quarter

Hourly Weather History & Observations

Time (PDT) Temp. Dew Point Humidity Pressure Visibility Wind Dir Wind Speed Gust Speed Precip Events Conditions
12:53 AM 53.1 °F 48.9 °F 86% 29.99 in 10.0 mi NNW 3.5 mph - N/A   Clear
1:53 AM 52.0 °F 48.0 °F 86% 29.98 in 10.0 mi WNW 3.5 mph - N/A   Clear
2:53 AM 52.0 °F 48.0 °F 86% 29.98 in 10.0 mi NW 3.5 mph - N/A   Clear
3:53 AM 50.0 °F 46.9 °F 89% 29.98 in 10.0 mi Calm Calm - N/A   Clear
4:23 AM 50.0 °F 46.4 °F 87% 29.99 in 10.0 mi Calm Calm - N/A   Scattered Clouds
4:31 AM 51.8 °F 46.4 °F 82% 29.99 in 10.0 mi Calm Calm - N/A   Mostly Cloudy
4:49 AM 51.8 °F 48.2 °F 88% 29.98 in 1.5 mi Calm Calm - N/A   Overcast
4:51 AM 51.8 °F 48.2 °F 88% 29.98 in 0.8 mi Calm Calm - N/A   Overcast
4:53 AM 51.1 °F 48.9 °F 92% 29.99 in 0.8 mi Calm Calm - N/A   Overcast
5:48 AM 51.8 °F 50.0 °F 94% 29.98 in 1.0 mi NW 3.5 mph - N/A   Mist
5:53 AM 51.1 °F 50.0 °F 96% 29.99 in 1.0 mi Calm Calm - N/A   Mist
6:34 AM 51.8 °F 51.8 °F 100% 29.99 in 0.8 mi WNW 3.5 mph - N/A   Mist
6:46 AM 51.8 °F 51.8 °F 100% 29.99 in 1.0 mi Calm Calm - N/A   Mist
6:53 AM 52.0 °F 51.1 °F 97% 29.99 in 0.8 mi Calm Calm - N/A   Mist
7:14 AM 51.8 °F 51.8 °F 100% 30.00 in 1.0 mi WNW 3.5 mph - N/A   Overcast
7:21 AM 51.8 °F 51.8 °F 100% 30.00 in 0.8 mi Calm Calm - N/A   Overcast
7:29 AM 51.8 °F 51.8 °F 100% 30.00 in 1.0 mi Calm Calm - N/A   Overcast
7:39 AM 53.6 °F 51.8 °F 94% 30.01 in 1.5 mi Calm Calm - N/A   Overcast
7:53 AM 53.1 °F 52.0 °F 96% 30.01 in 1.8 mi Calm Calm - N/A   Overcast
8:09 AM 53.6 °F 51.8 °F 94% 30.01 in 2.0 mi Calm Calm - N/A   Overcast
8:33 AM 53.6 °F 51.8 °F 94% 30.02 in 3.0 mi Calm Calm - N/A   Overcast
8:53 AM 55.0 °F 53.1 °F 93% 30.02 in 4.0 mi Calm Calm - N/A   Overcast
9:31 AM 55.4 °F 53.6 °F 94% 30.02 in 10.0 mi Calm Calm - N/A   Overcast
9:53 AM 57.9 °F 52.0 °F 81% 30.02 in 10.0 mi Calm Calm - N/A   Overcast
10:08 AM 57.2 °F 51.8 °F 82% 30.02 in 10.0 mi SE 3.5 mph - N/A   Overcast
10:53 AM 60.1 °F 53.1 °F 78% 30.02 in 10.0 mi Variable 4.6 mph - N/A   Overcast
11:53 AM 64.0 °F 53.1 °F 67% 30.01 in 10.0 mi SE 5.8 mph - N/A   Mostly Cloudy
12:00 PM 64.4 °F 53.6 °F 68% 30.01 in 10.0 mi Variable 5.8 mph - N/A   Scattered Clouds
12:53 PM 66.0 °F 53.1 °F 63% 29.99 in 10.0 mi SW 6.9 mph - N/A   Clear
1:53 PM 66.0 °F 53.1 °F 63% 29.99 in 10.0 mi South 10.4 mph - N/A   Clear
2:53 PM 66.9 °F 53.1 °F 61% 29.98 in 10.0 mi South 9.2 mph - N/A   Clear
3:53 PM 66.9 °F 52.0 °F 59% 29.97 in 10.0 mi South 9.2 mph - N/A   Clear
4:53 PM 64.9 °F 52.0 °F 63% 29.97 in 10.0 mi SE 9.2 mph - N/A   Clear
5:53 PM 62.1 °F 52.0 °F 70% 29.97 in 10.0 mi ESE 11.5 mph - N/A   Clear
6:23 PM 60.8 °F 51.8 °F 72% 29.97 in 10.0 mi SE 8.1 mph - N/A   Scattered Clouds
6:35 PM 60.8 °F 51.8 °F 72% 29.97 in 10.0 mi ESE 9.2 mph - N/A   Mostly Cloudy
6:53 PM 57.9 °F 52.0 °F 81% 29.97 in 10.0 mi ESE 9.2 mph - N/A   Overcast
7:53 PM 55.9 °F 52.0 °F 87% 29.97 in 10.0 mi ESE 5.8 mph - N/A   Overcast
8:03 PM 55.4 °F 51.8 °F 88% 29.97 in 10.0 mi East 9.2 mph - N/A   Overcast
8:53 PM 55.0 °F 52.0 °F 89% 29.98 in 10.0 mi East 9.2 mph - N/A   Overcast
9:32 PM 55.4 °F 51.8 °F 88% 29.99 in 10.0 mi ENE 6.9 mph 104.7 mph N/A   Overcast
9:53 PM 55.0 °F 52.0 °F 89% 29.99 in 10.0 mi NE 4.6 mph - N/A   Overcast
10:53 PM 55.0 °F 52.0 °F 89% 29.99 in 10.0 mi ENE 5.8 mph - N/A   Overcast
11:53 PM 55.0 °F 52.0 °F 89% 29.99 in 10.0 mi NE 3.5 mph - N/A   Overcast